Location: Mercogliano
(40.9167°N, 14.7333°E)
Time: 13:39:45
(UTC+00:00)

Cosmos 1674 - Pass Details

Date: 18 September 2020
Orbit: 494 x 518 km, 82.5° (Epoch: 28 October)

Event Time Altitude Azimuth Distance (km) Brightness Sun altitude
Rises 19:04:28 0° 355° (N) 2,651 6.7 -22.8°
Reaches altitude 10° 19:06:38 10° 358° (N) 1,758 5.7 -23.2°
Enters shadow 19:09:07 37° 10° (N) 817 3.7 -23.6°
